Back to catalog

FENGYUN 2C

AliveWeatherGEO
NORAD 28451·PAYLOAD·🇨🇳 China

Launched Oct 19, 2004 from Xichang Satellite Launch Center

Loading…

TLE

FreshSource: Space-Track

Epoch: Sep 14, 2026, 07:30 UTC

1 28451U 04042A   26257.31277781 -.00000120  00000-0  00000-0 0  9992
2 28451  12.5771  30.4896 0002768 355.3202 195.2303  0.98083028 42049

Track FENGYUN 2C in real time with AllMySat

Download on the App Store